Content
SEND FEEDBACK

Daily
Averages
Monthly
Summary
United States of America

UMATAC, GUAM


Home > North America > United States > Guam
Elevation: 190 feet     Latitude: 13 17N     Longitude: 144 40E

WEATHER
 
SELECT A DAY
Number of Records: 342,166;   Date Range: 1/1/95 - 8/12/14
 
SHARE

PRINT THIS DATA

[ ← Previous Day ]
WEATHER ALMANAC - JANUARY 12, 2013
[ Next Day → ]
[ °C ]   °F
Weather ElementAverageHighLow
Temperature75.6 °F81.1 °F (10:55 am)69.8 °F (3:32 am)
Dewpoint70.1 °F73.4 °F (12:07 am)65.1 °F (7:55 pm)
Humidity83.5 %94 % (6:52 am)65 % (3:48 pm)
Barometer29.87 in29.94 in (8:30 am)29.83 in (2:25 pm)
Wind Speed17.8 mph27.6 mph (5:54 pm)
Wind Gust39.1 mph (5:54 pm)
Weather ElementAverage
Visibility9.1 mi
Wind DirectionENE (64.4 °)

Weather ElementTotal
Precipitation0.07 in
Cooling Degree Days10.5 (Base 65)
Growing Degree Days25.5 (Base 50)
Averaged from 135 records on January 12, 2013
WEATHER CONDITIONS BREAKOUT
WIND DIRECTION BREAKOUT
WEATHER BY HOUR - JANUARY 12, 2013
[ °C ]   °F
Local TimeTemperatureDewpointHumidityBarometerVisibilityWind DirectionWind SpeedGust SpeedPrecipitationEventsConditions
12:07 AM77.0 °F73.4 °F89 %29.89 in10.0 miEast (90°)13.8 mph24.2 mphScattered Clouds
12:41 AM77.0 °F73.4 °F89 %29.89 in7.0 miENE (60°)15.0 mphLight Drizzle
12:46 AM77.0 °F73.4 °F89 %29.89 in7.0 miENE (60°)12.7 mphLight Drizzle
12:48 AM77.0 °F73.4 °F89 %29.89 in8.0 miENE (60°)16.1 mphOvercast
12:55 AM77.0 °F73.4 °F89 %29.89 in10.0 miENE (70°)13.8 mph0.00 inOvercast
1:18 AM77.0 °F73.4 °F89 %29.89 in10.0 miEast (80°)16.1 mphOvercast
1:55 AM77.0 °F73.4 °F89 %29.93 in10.0 miENE (70°)10.4 mphMostly Cloudy
2:50 AM77.0 °F73.4 °F89 %29.87 in10.0 miENE (70°)12.7 mphMostly Cloudy
2:54 AM77.0 °F73.4 °F89 %29.87 in10.0 miENE (70°)10.4 mphMostly Cloudy
2:55 AM77.0 °F73.4 °F89 %29.87 in10.0 miENE (70°)10.4 mphMostly Cloudy
3:25 AM77.0 °F73.4 °F89 %29.87 in10.0 miENE (60°)12.7 mphMostly Cloudy
3:32 AM69.8 °F66.2 °F88 %29.87 in10.0 miENE (60°)13.8 mphMostly Cloudy
3:55 AM76.1 °F72.9 °F90 %29.87 in10.0 miENE (60°)11.5 mphPartly Cloudy
4:23 AM77.0 °F73.4 °F89 %29.87 in10.0 miENE (70°)11.5 mphMostly Cloudy
4:27 AM75.2 °F71.6 °F89 %29.88 in10.0 miENE (70°)15.0 mphMostly Cloudy
4:29 AM75.2 °F71.6 °F89 %29.88 in10.0 miENE (70°)15.0 mphMostly Cloudy
4:31 AM75.2 °F71.6 °F89 %29.88 in9.0 miEast (80°)12.7 mphRainLight Rain
4:32 AM75.2 °F71.6 °F89 %29.88 in9.0 miEast (80°)13.8 mphRainLight Rain
4:39 AM77.0 °F73.4 °F89 %29.88 in4.0 miENE (70°)15.0 mphRainRain
4:40 AM77.0 °F73.4 °F89 %29.88 in4.0 miENE (70°)15.0 mphRainRain
4:47 AM77.0 °F73.4 °F89 %29.88 in10.0 miENE (70°)15.0 mphMostly Cloudy
4:55 AM75.9 °F72.1 °F88 %29.88 in10.0 miENE (70°)12.7 mph0.03 inMostly Cloudy
5:10 AM75.2 °F71.6 °F89 %29.88 in10.0 miENE (60°)15.0 mphScattered Clouds
5:55 AM75.7 °F71.2 °F86 %29.88 in10.0 miENE (70°)10.4 mphMostly Cloudy
6:52 AM75.2 °F73.4 °F94 %29.91 in10.0 miENE (60°)18.4 mphMostly Cloudy
6:55 AM75.2 °F73.4 °F94 %29.91 in9.0 miENE (60°)17.3 mph0.00 inRainLight Rain
7:00 AM75.2 °F73.4 °F94 %29.91 in9.0 miENE (60°)13.8 mphRainLight Rain
7:04 AM75.2 °F73.4 °F94 %29.91 in10.0 miENE (60°)11.5 mphMostly Cloudy
7:55 AM71.8 °F65.5 °F80 %29.92 in10.0 miENE (70°)16.1 mph0.00 inPartly Cloudy
8:03 AM71.6 °F66.2 °F83 %29.93 in10.0 miENE (70°)17.3 mphMostly Cloudy
8:04 AM71.6 °F66.2 °F83 %29.93 in10.0 miEast (80°)17.3 mphMostly Cloudy
8:06 AM71.6 °F66.2 °F83 %29.93 in10.0 miENE (70°)15.0 mphMostly Cloudy
8:20 AM71.6 °F66.2 °F83 %29.93 in10.0 miEast (80°)16.1 mphMostly Cloudy
8:23 AM71.6 °F66.2 °F83 %29.93 in9.0 miENE (70°)15.0 mphMostly Cloudy
8:25 AM71.6 °F66.2 °F83 %29.93 in7.0 miENE (70°)16.1 mphLight Drizzle
8:30 AM71.6 °F68.0 °F88 %29.94 in7.0 miEast (100°)12.7 mphLight Drizzle
8:34 AM69.8 °F68.0 °F94 %29.94 in9.0 miEast (90°)12.7 mphMostly Cloudy
8:40 AM69.8 °F68.0 °F94 %29.94 in9.0 miEast (80°)9.2 mphMostly Cloudy
8:46 AM71.6 °F68.0 °F88 %29.94 in10.0 miEast (80°)11.5 mphMostly Cloudy
8:51 AM71.6 °F68.0 °F88 %29.94 in10.0 miENE (60°)12.7 mphOvercast
8:55 AM71.6 °F66.7 °F85 %29.94 in10.0 miENE (60°)17.3 mph0.00 inOvercast
8:58 AM71.6 °F66.2 °F83 %29.93 in10.0 miENE (60°)17.3 mphMostly Cloudy
9:52 AM73.4 °F68.0 °F83 %29.93 in10.0 miENE (60°)16.1 mphMostly Cloudy
9:55 AM74.1 °F67.3 °F79 %29.93 in10.0 miNE (50°)18.4 mphMostly Cloudy
10:00 AM75.2 °F68.0 °F78 %29.93 in10.0 miENE (60°)16.1 mphScattered Clouds
10:03 AM75.2 °F66.2 °F73 %29.92 in10.0 miNE (50°)18.4 mphMostly Cloudy
10:06 AM75.2 °F66.2 °F73 %29.92 in10.0 miNE (50°)16.1 mphScattered Clouds
10:24 AM73.4 °F68.0 °F83 %29.92 in9.0 miNE (50°)18.4 mph28.8 mphMostly Cloudy
10:25 AM73.4 °F68.0 °F83 %29.92 in9.0 miENE (60°)17.3 mph28.8 mphRainLight Rain
10:28 AM73.4 °F68.0 °F83 %29.92 in9.0 miENE (60°)16.1 mph28.8 mphRainLight Rain
10:33 AM77.0 °F73.4 °F89 %29.92 in10.0 miENE (70°)19.6 mphMostly Cloudy
10:55 AM81.1 °F72.7 °F75 %29.91 in10.0 miENE (70°)16.1 mph24.2 mph0.00 inMostly Cloudy
11:22 AM77.0 °F71.6 °F83 %29.90 in10.0 miENE (60°)25.3 mph29.9 mphMostly Cloudy
11:25 AM77.0 °F71.6 °F83 %29.90 in8.0 miENE (60°)21.9 mph29.9 mphRainLight Rain
11:30 AM75.2 °F71.6 °F89 %29.89 in5.0 miENE (60°)13.8 mphLight Drizzle
11:38 AM77.0 °F71.6 °F83 %29.89 in8.0 miNE (50°)23.0 mphMostly Cloudy
11:42 AM77.0 °F71.6 °F83 %29.90 in10.0 miNE (50°)20.7 mph26.5 mphMostly Cloudy
11:55 AM75.7 °F70.9 °F85 %29.89 in10.0 miNE (50°)18.4 mph0.00 inMostly Cloudy
11:57 AM75.2 °F69.8 °F83 %29.89 in10.0 miNE (50°)18.4 mphMostly Cloudy
12:19 PM80.6 °F73.4 °F79 %29.88 in10.0 miNE (50°)19.6 mph26.5 mphMostly Cloudy
12:22 PM80.6 °F73.4 °F79 %29.87 in10.0 miNE (50°)19.6 mphMostly Cloudy
12:27 PM80.6 °F73.4 °F79 %29.87 in10.0 miNE (50°)19.6 mphLight Drizzle
12:28 PM80.6 °F73.4 °F79 %29.87 in10.0 miNE (50°)20.7 mphLight Drizzle
12:34 PM80.6 °F71.6 °F74 %29.87 in10.0 miNE (50°)21.9 mphLight Drizzle
12:35 PM80.6 °F71.6 °F74 %29.87 in10.0 miNE (50°)21.9 mphScattered Clouds
12:36 PM80.6 °F71.6 °F74 %29.86 in10.0 miNE (50°)21.9 mphMostly Cloudy
12:44 PM80.6 °F73.4 °F79 %29.86 in10.0 miNE (50°)23.0 mph29.9 mphMostly Cloudy
12:55 PM79.3 °F71.1 °F76 %29.86 in10.0 miENE (60°)23.0 mph28.8 mph0.01 inMostly Cloudy
12:57 PM78.8 °F69.8 °F74 %29.86 in10.0 miENE (60°)23.0 mph28.8 mphMostly Cloudy
1:01 PM77.0 °F69.8 °F78 %29.86 in10.0 miENE (60°)24.2 mphMostly Cloudy
1:21 PM78.8 °F71.6 °F78 %29.85 in10.0 miNE (50°)24.2 mph29.9 mphMostly Cloudy
1:27 PM80.6 °F71.6 °F74 %29.85 in10.0 miENE (60°)23.0 mphMostly Cloudy
1:55 PM77.2 °F69.3 °F76 %29.84 in10.0 miNE (50°)21.9 mph26.5 mphScattered Clouds
2:25 PM75.2 °F68.0 °F78 %29.83 in10.0 miNE (50°)21.9 mph25.3 mphMostly Cloudy
2:29 PM75.2 °F68.0 °F78 %29.83 in10.0 miENE (60°)21.9 mphMostly Cloudy
2:37 PM77.0 °F71.6 °F83 %29.83 in4.0 miENE (60°)21.9 mph33.4 mphRainLight Rain
2:44 PM73.4 °F71.6 °F94 %29.83 in4.0 miENE (60°)25.3 mphRainLight Rain
2:45 PM73.4 °F71.6 °F94 %29.83 in5.0 miENE (60°)23.0 mph27.6 mphOvercast
2:48 PM71.6 °F69.8 °F94 %29.83 in8.0 miENE (60°)24.2 mph29.9 mphOvercast
2:52 PM71.6 °F69.8 °F94 %29.83 in10.0 miENE (60°)21.9 mph29.9 mphOvercast
2:55 PM71.6 °F68.4 °F89 %29.83 in10.0 miENE (60°)16.1 mph29.9 mph0.00 inOvercast
3:01 PM73.4 °F68.0 °F83 %29.83 in10.0 miENE (60°)16.1 mphOvercast
3:02 PM73.4 °F69.8 °F88 %29.83 in10.0 miENE (70°)17.3 mphOvercast
3:48 PM78.8 °F66.2 °F65 %29.84 in10.0 miENE (70°)19.6 mphMostly Cloudy
3:50 PM78.8 °F66.2 °F65 %29.84 in10.0 miENE (70°)19.6 mphScattered Clouds
3:53 PM78.8 °F66.2 °F65 %29.83 in10.0 miEast (80°)19.6 mphMostly Cloudy
3:55 PM78.8 °F66.2 °F65 %29.83 in10.0 miEast (80°)18.4 mphMostly Cloudy
3:56 PM78.8 °F66.2 °F65 %29.83 in10.0 miEast (80°)18.4 mphMostly Cloudy
4:00 PM73.4 °F66.2 °F78 %29.84 in5.0 miENE (70°)21.9 mph31.1 mphRainLight Rain
4:10 PM69.8 °F68.0 °F94 %29.84 in5.0 miEast (90°)19.6 mphLight Drizzle
4:12 PM71.6 °F68.0 °F88 %29.84 in9.0 miEast (90°)17.3 mphMostly Cloudy
4:13 PM71.6 °F69.8 °F94 %29.84 in10.0 miEast (80°)17.3 mphOvercast
4:28 PM71.6 °F68.0 °F88 %29.85 in4.0 miENE (70°)19.6 mph25.3 mphRainLight Rain
4:30 PM69.8 °F68.0 °F94 %29.84 in2.5 miENE (70°)18.4 mph25.3 mphRainHeavy Rain
4:31 PM69.8 °F66.2 °F88 %29.84 in2.5 miENE (70°)17.3 mph25.3 mphRainHeavy Rain
4:37 PM71.6 °F69.8 °F94 %29.84 in3.0 miENE (70°)16.1 mph25.3 mphRainLight Rain
4:38 PM71.6 °F69.8 °F94 %29.85 in4.0 miENE (70°)15.0 mph25.3 mphMostly Cloudy
4:39 PM73.4 °F69.8 °F88 %29.85 in6.0 miENE (60°)17.3 mph26.5 mphMostly Cloudy
4:43 PM71.6 °F69.8 °F94 %29.85 in10.0 miENE (60°)19.6 mph26.5 mphMostly Cloudy
4:45 PM71.6 °F68.0 °F88 %29.85 in10.0 miENE (60°)19.6 mph26.5 mphMostly Cloudy
4:55 PM77.0 °F66.6 °F70 %29.85 in10.0 miEast (80°)18.4 mph0.03 inScattered Clouds
5:04 PM77.0 °F68.0 °F74 %29.85 in6.0 miEast (80°)17.3 mphLight Drizzle
5:08 PM77.0 °F68.0 °F74 %29.85 in6.0 miEast (80°)15.0 mphLight Drizzle
5:14 PM77.0 °F68.0 °F74 %29.85 in9.0 miENE (70°)13.8 mphMostly Cloudy
5:17 PM77.0 °F68.0 °F74 %29.85 in10.0 miENE (60°)15.0 mphMostly Cloudy
5:19 PM77.0 °F69.8 °F78 %29.85 in10.0 miENE (60°)16.1 mphMostly Cloudy
5:20 PM77.0 °F68.0 °F74 %29.85 in10.0 miENE (60°)16.1 mphMostly Cloudy
5:25 PM77.0 °F68.0 °F74 %29.85 in10.0 miENE (60°)17.3 mphOvercast
5:26 PM77.0 °F68.0 °F74 %29.86 in10.0 miENE (60°)18.4 mphOvercast
5:33 PM77.0 °F66.2 °F69 %29.85 in10.0 miENE (60°)16.1 mph24.2 mphMostly Cloudy
5:34 PM77.0 °F68.0 °F74 %29.86 in10.0 miENE (60°)15.0 mph24.2 mphMostly Cloudy
5:36 PM78.8 °F69.8 °F74 %29.86 in10.0 miENE (60°)16.1 mph24.2 mphMostly Cloudy
5:37 PM78.8 °F69.8 °F74 %29.85 in10.0 miENE (60°)18.4 mph24.2 mphMostly Cloudy
5:38 PM78.8 °F71.6 °F78 %29.85 in9.0 miENE (60°)20.7 mph26.5 mphRainLight Rain
5:40 PM78.8 °F71.6 °F78 %29.85 in9.0 miENE (60°)21.9 mph26.5 mphLight Drizzle
5:42 PM78.8 °F71.6 °F78 %29.85 in9.0 miENE (60°)21.9 mph26.5 mphLight Drizzle
5:48 PM78.8 °F71.6 °F78 %29.85 in10.0 miENE (60°)23.0 mph28.8 mphMostly Cloudy
5:54 PM77.0 °F73.4 °F89 %29.85 in10.0 miENE (70°)27.6 mph39.1 mphMostly Cloudy
5:55 PM76.5 °F73.0 °F89 %29.85 in9.0 miENE (70°)26.5 mph39.1 mph0.00 inMostly Cloudy
6:10 PM75.2 °F71.6 °F89 %29.85 in10.0 miENE (60°)18.4 mph29.9 mphOvercast
6:19 PM75.2 °F71.6 °F89 %29.85 in10.0 miENE (60°)17.3 mphOvercast
6:55 PM76.1 °F72.5 °F89 %29.85 in10.0 miENE (60°)19.6 mphMostly Cloudy
7:19 PM73.4 °F69.8 °F88 %29.84 in10.0 miENE (60°)20.7 mphMostly Cloudy
7:40 PM73.4 °F69.8 °F88 %29.84 in10.0 miENE (60°)19.6 mph28.8 mphMostly Cloudy
7:55 PM71.2 °F65.1 °F81 %29.84 in10.0 miENE (60°)21.9 mph28.8 mphScattered Clouds
8:55 PM74.1 °F68.7 °F83 %29.84 in10.0 miENE (60°)23.0 mphPartly Cloudy
9:55 PM76.8 °F71.1 °F82 %29.87 in10.0 miENE (60°)18.4 mphScattered Clouds
9:56 PM77.0 °F71.6 °F83 %29.87 in10.0 miENE (60°)19.6 mphMostly Cloudy
10:44 PM77.0 °F71.6 °F83 %29.87 in10.0 miENE (70°)18.4 mph25.3 mphRainLight Rain
10:53 PM77.0 °F71.6 °F83 %29.87 in10.0 miENE (60°)15.0 mphMostly Cloudy
10:55 PM76.3 °F71.8 °F86 %29.87 in10.0 miENE (60°)19.6 mph25.3 mph0.00 inMostly Cloudy
11:30 PM75.2 °F71.6 °F89 %29.88 in10.0 miENE (70°)17.3 mphMostly Cloudy
11:34 PM77.0 °F71.6 °F83 %29.88 in10.0 miENE (60°)19.6 mph24.2 mphLight Drizzle
11:46 PM77.0 °F73.4 °F89 %29.88 in10.0 miENE (60°)20.7 mph27.6 mphMostly Cloudy
11:55 PM76.8 °F72.0 °F85 %29.88 in10.0 miENE (60°)20.7 mph27.6 mph0.00 inMostly Cloudy
Hourly data recorded from PGUA, located miles away from Umatac, Guam







STORIES FROM OUR PARTNERS